DW1814 Weather Reports


Display with metric or nautical units.
time (UTC)temp
F
wind
direction
speed
MPH
gust
MPH
rain 1hr
in
rain 24hr
in
rain mn
in
humidity
%
barometer
mb
20260903065559 78 53 0.0 1.0 0.00 0.00 0.00 89 1012.6
20260903065055 78 67 0.0 1.0 0.00 0.00 0.00 89 1012.7
20260903064554 78 71 1.0 1.0 0.00 0.00 0.00 88 1012.5
20260903064049 78 89 0.0 1.0 0.00 0.00 0.00 88 1012.6
20260903063545 78 50 1.0 1.0 0.00 0.00 0.00 87 1012.6
20260903063040 79 40 0.0 1.0 0.00 0.00 0.00 87 1012.8
20260903062535 79 62 0.0 1.0 0.00 0.00 0.00 87 1012.9
20260903062031 79 69 0.0 1.0 0.00 0.00 0.00 87 1012.6
20260903061526 79 62 0.0 0.0 0.00 0.00 0.00 87 1012.8
20260903061026 79 47 0.0 1.0 0.00 0.00 0.00 87 1012.6
20260903060526 79 75 0.0 1.0 0.00 0.00 0.00 87 1012.7
20260903060021 79 62 0.0 1.0 0.00 0.00 0.00 87 1012.7
20260903055518 79 44 0.0 1.0 0.00 0.00 0.00 87 1012.8
20260903055017 79 62 0.0 1.0 0.00 0.00 0.00 87 1013.0
20260903054512 79 37 0.0 1.0 0.00 0.00 0.00 87 1012.8
20260903054009 79 63 0.0 0.0 0.00 0.00 0.00 87 1012.8
20260903053508 80 37 0.0 1.0 0.00 0.00 0.00 87 1012.8
20260903053005 80 72 1.0 2.0 0.00 0.00 0.00 87 1012.6
20260903052500 80 75 0.0 1.0 0.00 0.00 0.00 86 1012.6
20260903051956 80 89 0.0 1.0 0.00 0.00 0.00 86 1012.8
20260903051450 80 31 0.0 1.0 0.00 0.00 0.00 87 1012.9
20260903050946 80 55 0.0 0.0 0.00 0.00 0.00 86 1012.7
20260903050445 80 37 0.0 1.0 0.00 0.00 0.00 86 1012.7
20260903045940 80 45 0.0 0.0 0.00 0.00 0.00 86 1012.9
20260903045436 80 180 0.0 0.0 0.00 0.00 0.00 86 1012.6
20260903044932 80 189 0.0 1.0 0.00 0.00 0.00 86 1012.4
20260903044432 80 104 0.0 1.0 0.00 0.00 0.00 87 1012.5
20260903043929 80 135 0.0 1.0 0.00 0.00 0.00 87 1012.6
20260903043424 79 50 0.0 0.0 0.00 0.00 0.00 88 1012.7
20260903042922 79 37 0.0 0.0 0.00 0.00 0.00 88 1012.6
20260903042418 80 50 0.0 0.0 0.00 0.00 0.00 87 1012.6
20260903041914 80 37 0.0 0.0 0.00 0.00 0.00 87 1012.6
20260903041410 80 135 0.0 1.0 0.00 0.00 0.00 87 1012.5
20260903040906 80 89 0.0 1.0 0.00 0.00 0.00 87 1012.6
20260903040404 80 135 0.0 0.0 0.00 0.00 0.00 87 1012.6
20260903035901 80 15 0.0 0.0 0.00 0.00 0.00 86 1012.6
20260903035356 80 124 0.0 1.0 0.00 0.00 0.00 86 1012.5
20260903034851 80 66 0.0 0.0 0.00 0.00 0.00 86 1012.5
20260903034346 80 113 0.0 1.0 0.00 0.00 0.00 87 1012.7
20260903033842 80 55 0.0 1.0 0.00 0.00 0.00 87 1012.6
20260903033337 80 77 0.0 1.0 0.00 0.00 0.00 87 1012.5
20260903032836 80 55 0.0 1.0 0.00 0.00 0.00 87 1012.5
20260903032332 80 55 0.0 1.0 0.00 0.00 0.00 87 1012.7
20260903031827 80 62 0.0 0.0 0.00 0.00 0.00 86 1012.6
20260903031326 80 38 0.0 1.0 0.00 0.00 0.00 86 1012.4
20260903030822 80 32 0.0 1.0 0.00 0.00 0.00 86 1012.5
20260903030318 80 54 0.0 1.0 0.00 0.00 0.00 85 1012.5
20260903025814 81 40 0.0 1.0 0.00 0.00 0.00 85 1012.4
20260903025309 81 55 0.0 1.0 0.00 0.00 0.00 84 1012.6
20260903024803 81 124 0.0 0.0 0.00 0.00 0.00 83 1012.4
20260903024303 81 164 0.0 0.0 0.00 0.00 0.00 83 1012.4
20260903023759 81 164 0.0 0.0 0.00 0.00 0.00 83 1012.3
20260903023255 81 147 0.0 1.0 0.00 0.00 0.00 83 1012.5
20260903022754 81 154 0.0 1.0 0.00 0.00 0.00 83 1012.4
20260903022253 81 124 0.0 1.0 0.00 0.00 0.00 84 1012.4
20260903021753 80 117 0.0 0.0 0.00 0.00 0.00 85 1012.4
20260903021248 80 52 0.0 1.0 0.00 0.00 0.00 86 1012.6
20260903020743 80 124 0.0 1.0 0.00 0.00 0.00 86 1012.4
20260903020243 80 50 0.0 1.0 0.00 0.00 0.00 86 1012.5
20260903015738 80 47 0.0 1.0 0.00 0.00 0.00 86 1012.5
20260903015234 80 69 0.0 1.0 0.00 0.00 0.00 85 1012.5
20260903014729 80 62 1.0 1.0 0.00 0.00 0.00 85 1012.3
20260903014228 80 53 1.0 1.0 0.00 0.00 0.00 85 1012.4
20260903013724 81 43 0.0 2.0 0.00 0.00 0.00 84 1012.3
20260903013222 81 40 1.0 2.0 0.00 0.00 0.00 83 1012.2
20260903012721 81 43 0.0 1.0 0.00 0.00 0.00 82 1012.0
20260903012221 82 40 0.0 1.0 0.00 0.00 0.00 81 1011.9
20260903011716 82 44 0.0 1.0 0.00 0.00 0.00 80 1011.8
20260903011210 82 50 0.0 0.0 0.00 0.00 0.00 79 1012.0
20260903010706 83 44 0.0 0.0 0.00 0.00 0.00 79 1012.0
20260903010205 83 50 0.0 0.0 0.00 0.00 0.00 78 1011.8
20260903005704 83 19 0.0 0.0 0.00 0.00 0.00 78 1011.7
20260903005159 83 40 0.0 0.0 0.00 0.00 0.00 79 1011.5
20260903004655 83 62 0.0 0.0 0.00 0.00 0.00 78 1011.6
20260903004149 83 37 0.0 0.0 0.00 0.00 0.00 78 1011.5
20260903003645 84 62 0.0 1.0 0.00 0.00 0.00 76 1011.4
20260903003140 84 36 0.0 1.0 0.00 0.00 0.00 75 1011.6
20260903002636 85 67 1.0 1.0 0.00 0.00 0.00 74 1011.5
20260903002131 85 50 0.0 1.0 0.00 0.00 0.00 74 1011.6
20260903001625 85 34 0.0 1.0 0.00 0.00 0.00 73 1011.6
20260903001124 85 62 0.0 1.0 0.00 0.00 0.00 73 1011.6
20260903000621 86 40 0.0 1.0 0.00 0.00 0.00 72 1011.7
20260903000119 86 104 0.0 1.0 0.00 0.00 0.00 71 1011.4
20260902235618 86 89 0.0 0.0 0.00 0.00 0.00 71 1011.5
20260902235114 87 72 0.0 1.0 0.00 0.00 0.00 70 1011.4
20260902234608 87 322 0.0 0.0 0.00 0.00 0.00 70 1011.4
20260902234106 87 25 0.0 0.0 0.00 0.00 0.00 69 1011.3
20260902233602 88 180 0.0 1.0 0.00 0.00 0.00 68 1011.3
20260902233102 89 195 0.0 0.0 0.00 0.00 0.00 67 1011.5
20260902232556 89 130 0.0 2.0 0.00 0.00 0.00 67 1011.3
20260902232056 89 38 0.0 1.0 0.00 0.00 0.00 66 1011.2
20260902231555 89 180 0.0 2.0 0.00 0.00 0.00 66 1011.2
20260902231050 89 154 0.0 0.0 0.00 0.00 0.00 65 1011.3
20260902230550 90 164 0.0 0.0 0.00 0.00 0.00 64 1011.3
20260902230049 90 129 0.0 1.0 0.00 0.00 0.00 63 1011.4
20260902225545 90 129 0.0 1.0 0.00 0.00 0.00 64 1011.5
20260902225044 90 354 0.0 2.0 0.00 0.00 0.00 64 1011.5
20260902224543 90 240 0.0 0.0 0.00 0.00 0.00 61 1011.4
20260902224039 90 212 0.0 0.0 0.00 0.00 0.00 62 1011.5
20260902223536 90 80 0.0 1.0 0.00 0.00 0.00 65 1011.6
20260902223034 90 164 0.0 0.0 0.00 0.00 0.00 61 1011.5
20260902222533 90 154 0.0 1.0 0.00 0.00 0.00 62 1011.8
20260902222032 90 160 0.0 0.0 0.00 0.00 0.00 60 1011.6
20260902221527 91 269 0.0 0.0 0.00 0.00 0.00 58 1011.8
20260902221022 91 224 0.0 1.0 0.00 0.00 0.00 59 1011.7
20260902220517 91 337 0.0 1.0 0.00 0.00 0.00 60 1011.5
20260902220012 91 290 0.0 3.0 0.00 0.00 0.00 57 1011.7
20260902215508 92 230 0.0 0.0 0.00 0.00 0.00 57 1011.7
20260902215003 92 3 0.0 2.0 0.00 0.00 0.00 57 1011.5
20260902214503 92 269 0.0 1.0 0.00 0.00 0.00 57 1011.9
20260902214001 92 256 1.0 2.0 0.00 0.00 0.00 58 1011.7
20260902213458 93 294 3.0 4.0 0.00 0.00 0.00 54 1011.8
20260902212956 93 287 0.0 1.0 0.00 0.00 0.00 50 1011.8
20260902212453 93 269 0.0 3.0 0.00 0.00 0.00 49 1011.7
20260902211949 93 307 1.0 2.0 0.00 0.00 0.00 49 1011.6
20260902211444 93 285 1.0 2.0 0.00 0.00 0.00 55 1011.8
20260902210939 93 288 4.0 5.0 0.00 0.00 0.00 53 1011.8
20260902210434 93 233 0.0 2.0 0.00 0.00 0.00 55 1011.8
20260902205932 93 266 0.0 2.0 0.00 0.00 0.00 59 1011.9
20260902205427 93 202 0.0 2.0 0.00 0.00 0.00 54 1011.8
20260902204923 93 232 0.0 3.0 0.00 0.00 0.00 54 1011.8
20260902204423 93 288 0.0 2.0 0.00 0.00 0.00 53 1011.8
20260902203913 93 218 2.0 4.0 0.00 0.00 0.00 53 1011.7
20260902203408 93 228 2.0 3.0 0.00 0.00 0.00 54 1011.8
20260902202907 93 228 1.0 5.0 0.00 0.00 0.00 56 1011.9
20260902202403 93 273 1.0 2.0 0.00 0.00 0.00 56 1012.0
20260902201900 93 287 0.0 2.0 0.00 0.00 0.00 56 1012.2
20260902201400 93 354 2.0 2.0 0.00 0.00 0.00 54 1011.8
20260902200900 93 311 2.0 2.0 0.00 0.00 0.00 53 1012.2
20260902200355 94 209 0.0 4.0 0.00 0.00 0.00 56 1012.3
20260902195850 93 253 2.0 2.0 0.00 0.00 0.00 53 1012.2
20260902195350 93 298 2.0 2.0 0.00 0.00 0.00 53 1012.0
20260902194845 93 233 0.0 3.0 0.00 0.00 0.00 53 1012.3
20260902194345 93 210 1.0 6.0 0.00 0.00 0.00 52 1012.3
20260902193840 93 261 2.0 2.0 0.00 0.00 0.00 56 1012.0
20260902193336 93 261 1.0 2.0 0.00 0.00 0.00 55 1012.3
20260902192835 93 271 1.0 4.0 0.00 0.00 0.00 57 1012.4
20260902192334 93 357 0.0 2.0 0.00 0.00 0.00 57 1012.3
20260902191833 93 314 2.0 2.0 0.00 0.00 0.00 56 1012.3
20260902191329 93 237 1.0 2.0 0.00 0.00 0.00 56 1012.6
20260902190824 93 306 1.0 4.0 0.00 0.00 0.00 55 1012.5
20260902190323 93 268 1.0 2.0 0.00 0.00 0.00 55 1012.4
20260902185820 93 278 2.0 2.0 0.00 0.00 0.00 54 1012.6
20260902185317 93 283 0.0 2.0 0.00 0.00 0.00 57 1012.5
20260902184811 92 201 0.0 3.0 0.00 0.00 0.00 55 1012.6
20260902184306 92 325 2.0 2.0 0.00 0.00 0.00 55 1012.7
20260902183801 92 213 0.0 2.0 0.00 0.00 0.00 58 1012.7
20260902183258 92 325 0.0 2.0 0.00 0.00 0.00 56 1012.7
20260902182753 92 285 0.0 0.0 0.00 0.00 0.00 57 1012.8
20260902182250 92 282 0.0 2.0 0.00 0.00 0.00 55 1012.8
20260902181746 92 296 1.0 3.0 0.00 0.00 0.00 56 1012.8
20260902181245 93 274 2.0 2.0 0.00 0.00 0.00 56 1012.6
20260902180740 92 271 1.0 2.0 0.00 0.00 0.00 58 1012.7
20260902180236 92 240 0.0 2.0 0.00 0.00 0.00 55 1013.0
20260902175730 92 329 0.0 1.0 0.00 0.00 0.00 62 1012.7
20260902175226 91 269 0.0 2.0 0.00 0.00 0.00 58 1012.9
20260902174722 91 253 0.0 2.0 0.00 0.00 0.00 55 1013.1
20260902174218 92 289 2.0 2.0 0.00 0.00 0.00 57 1012.9
20260902173713 92 238 1.0 3.0 0.00 0.00 0.00 57 1013.1
20260902173208 92 235 0.0 2.0 0.00 0.00 0.00 57 1013.2
20260902172708 92 261 2.0 2.0 0.00 0.00 0.00 55 1012.8
20260902172208 92 264 2.0 2.0 0.00 0.00 0.00 58 1012.9
20260902171702 92 266 1.0 1.0 0.00 0.00 0.00 59 1013.0
20260902171158 92 240 0.0 2.0 0.00 0.00 0.00 55 1013.0
20260902170654 91 309 0.0 0.0 0.00 0.00 0.00 59 1013.1
20260902170149 91 197 0.0 3.0 0.00 0.00 0.00 60 1013.0
20260902165645 91 246 1.0 1.0 0.00 0.00 0.00 60 1013.4
20260902165144 91 204 2.0 2.0 0.00 0.00 0.00 61 1013.3
20260902164639 91 205 0.0 2.0 0.00 0.00 0.00 60 1013.4
20260902164138 90 224 0.0 1.0 0.00 0.00 0.00 60 1013.4
20260902163633 90 207 1.0 2.0 0.00 0.00 0.00 62 1013.4
20260902163133 90 19 0.0 2.0 0.00 0.00 0.00 61 1013.3
20260902162631 90 242 0.0 0.0 0.00 0.00 0.00 61 1013.2
20260902162126 90 193 0.0 1.0 0.00 0.00 0.00 62 1013.3
20260902161622 89 212 0.0 0.0 0.00 0.00 0.00 64 1013.5
20260902161118 89 315 0.0 2.0 0.00 0.00 0.00 63 1013.5
20260902160614 89 333 0.0 0.0 0.00 0.00 0.00 64 1013.4
20260902160109 88 207 1.0 1.0 0.00 0.00 0.00 64 1013.5
20260902155607 88 284 0.0 1.0 0.00 0.00 0.00 66 1013.6
20260902155106 87 23 0.0 2.0 0.00 0.00 0.00 67 1013.5
20260902154602 86 147 0.0 3.0 0.00 0.00 0.00 68 1013.8
20260902154101 86 290 3.0 3.0 0.00 0.00 0.00 67 1013.6
20260902153600 86 356 0.0 2.0 0.00 0.00 0.00 69 1013.4
20260902153056 85 19 0.0 0.0 0.00 0.00 0.00 69 1013.5
20260902152553 85 265 0.0 4.0 0.00 0.00 0.00 67 1013.3
20260902152047 85 150 0.0 0.0 0.00 0.00 0.00 70 1013.5
20260902151543 84 117 0.0 1.0 0.00 0.00 0.00 72 1013.5
20260902151042 84 301 4.0 5.0 0.00 0.00 0.00 68 1013.7
20260902150538 83 329 0.0 3.0 0.00 0.00 0.00 71 1014.0
20260902150034 83 124 0.0 2.0 0.00 0.00 0.00 73 1013.9
20260902145528 83 338 2.0 2.0 0.00 0.00 0.00 73 1014.1
20260902145028 83 124 0.0 0.0 0.00 0.00 0.00 72 1013.9
20260902144525 82 315 2.0 3.0 0.00 0.00 0.00 73 1013.9
20260902144025 82 13 0.0 2.0 0.00 0.00 0.00 73 1014.1
20260902143520 82 319 0.0 2.0 0.00 0.00 0.00 74 1014.1
20260902143016 82 275 0.0 2.0 0.00 0.00 0.00 72 1014.1
20260902142511 82 255 0.0 0.0 0.00 0.00 0.00 74 1013.9
20260902142007 81 89 0.0 1.0 0.00 0.00 0.00 75 1013.8
20260902141501 81 58 2.0 3.0 0.00 0.00 0.00 79 1014.0
20260902141001 80 89 0.0 1.0 0.00 0.00 0.00 76 1013.8
20260902140457 80 339 2.0 2.0 0.00 0.00 0.00 77 1014.1
20260902135956 80 6 1.0 2.0 0.00 0.00 0.00 75 1014.3
20260902135452 81 276 1.0 1.0 0.00 0.00 0.00 75 1014.3
20260902134951 81 24 2.0 2.0 0.00 0.00 0.00 75 1014.3
20260902134448 82 345 2.0 4.0 0.00 0.00 0.00 74 1014.3
20260902133947 81 330 2.0 3.0 0.00 0.00 0.00 77 1014.3
20260902133442 81 14 4.0 5.0 0.00 0.00 0.00 76 1014.3
20260902132937 80 148 1.0 1.0 0.00 0.00 0.00 78 1014.3
20260902132433 80 352 1.0 3.0 0.00 0.00 0.00 78 1014.1
20260902131927 80 124 2.0 2.0 0.00 0.00 0.00 79 1014.0
20260902131424 78 341 3.0 3.0 0.00 0.00 0.00 80 1014.4
20260902130923 78 108 1.0 4.0 0.00 0.00 0.00 80 1014.4
20260902130420 78 354 3.0 6.0 0.00 0.00 0.00 81 1014.6
20260902125920 79 359 1.0 2.0 0.00 0.00 0.00 80 1014.2
20260902125416 78 77 1.0 2.0 0.00 0.00 0.00 83 1013.8
20260902124912 77 104 0.0 0.0 0.00 0.00 0.00 84 1013.9
20260902124408 76 42 0.0 1.0 0.00 0.00 0.00 86 1013.6
20260902123902 76 119 0.0 2.0 0.00 0.00 0.00 86 1013.9
20260902123359 75 61 0.0 1.0 0.00 0.00 0.00 87 1013.8
20260902122857 75 88 0.0 1.0 0.00 0.00 0.00 87 1013.9
20260902122353 75 74 0.0 1.0 0.00 0.00 0.00 87 1013.9
20260902121854 75 76 1.0 1.0 0.00 0.00 0.00 88 1013.8
20260902121349 75 72 0.0 1.0 0.00 0.00 0.00 89 1013.8
20260902120844 74 66 0.0 2.0 0.00 0.00 0.00 89 1013.9
20260902120341 74 57 0.0 1.0 0.00 0.00 0.00 89 1013.7
20260902115840 74 139 1.0 1.0 0.00 0.00 0.00 90 1013.6
20260902115336 74 89 1.0 2.0 0.00 0.00 0.00 90 1013.4
20260902114833 74 337 1.0 2.0 0.00 0.00 0.00 90 1013.6
20260902114328 74 25 0.0 2.0 0.00 0.00 0.00 90 1013.6
20260902113828 74 343 1.0 2.0 0.00 0.00 0.00 89 1013.3
20260902113324 74 111 1.0 3.0 0.00 0.00 0.00 90 1013.4
20260902112823 74 76 1.0 2.0 0.00 0.00 0.00 90 1013.6
20260902112320 74 99 0.0 1.0 0.00 0.00 0.00 90 1013.3
20260902111814 74 89 0.0 1.0 0.00 0.00 0.00 90 1013.6
20260902111311 74 89 1.0 2.0 0.00 0.00 0.00 89 1013.5
20260902110807 74 80 1.0 1.0 0.00 0.00 0.00 89 1013.7
20260902110302 74 85 0.0 1.0 0.00 0.00 0.00 89 1013.4
20260902105802 74 89 0.0 1.0 0.00 0.00 0.00 89 1013.6
20260902105257 74 89 0.0 1.0 0.00 0.00 0.00 89 1013.7
20260902104753 74 93 1.0 1.0 0.00 0.00 0.00 90 1013.7
20260902104249 74 101 0.0 1.0 0.00 0.00 0.00 90 1013.7
20260902103748 74 97 0.0 1.0 0.00 0.00 0.00 90 1013.6
20260902103248 74 76 0.0 1.0 0.00 0.00 0.00 90 1013.8
20260902102744 74 123 0.0 1.0 0.00 0.00 0.00 90 1013.9
20260902102241 74 89 0.0 1.0 0.00 0.00 0.00 90 1013.5
20260902101736 74 99 0.0 1.0 0.00 0.00 0.00 90 1013.8
20260902101231 74 89 0.0 1.0 0.00 0.00 0.00 90 1013.7
20260902100730 74 89 0.0 1.0 0.00 0.00 0.00 90 1013.5
20260902100226 74 91 1.0 1.0 0.00 0.00 0.00 90 1013.7
20260902095725 74 93 0.0 1.0 0.00 0.00 0.00 90 1013.8
20260902095220 74 103 1.0 1.0 0.00 0.00 0.00 90 1013.8
20260902094714 74 113 1.0 1.0 0.00 0.00 0.00 91 1013.7
20260902094211 74 82 0.0 1.0 0.00 0.00 0.00 91 1013.7
20260902093710 74 62 0.0 1.0 0.00 0.00 0.00 90 1013.8
20260902093205 74 72 0.0 1.0 0.00 0.00 0.00 90 1013.8
20260902092700 74 68 0.0 1.0 0.00 0.00 0.00 89 1014.0
20260902092155 75 53 0.0 1.0 0.00 0.00 0.00 89 1013.8
20260902091654 75 79 1.0 1.0 0.00 0.00 0.00 89 1013.8
20260902091152 75 83 0.0 1.0 0.00 0.00 0.00 89 1013.7
20260902090647 75 79 1.0 2.0 0.00 0.00 0.00 89 1013.5
20260902090146 75 96 1.0 2.0 0.00 0.00 0.00 89 1013.5
20260902085641 75 101 1.0 1.0 0.00 0.00 0.00 89 1013.7
20260902085136 75 66 1.0 1.0 0.00 0.00 0.00 89 1013.6
20260902084632 75 84 0.0 1.0 0.00 0.00 0.00 89 1013.5
20260902084127 75 71 1.0 1.0 0.00 0.00 0.00 89 1013.5
20260902083622 75 91 1.0 1.0 0.00 0.00 0.00 89 1013.6
20260902083122 75 101 0.0 2.0 0.00 0.00 0.00 89 1013.2
20260902082618 75 98 1.0 1.0 0.00 0.00 0.00 89 1013.3
20260902082114 75 107 1.0 2.0 0.00 0.00 0.00 89 1013.1
20260902081611 75 62 0.0 1.0 0.00 0.00 0.00 89 1013.1
20260902081110 75 94 1.0 1.0 0.00 0.00 0.00 89 1013.3
20260902080606 75 87 1.0 1.0 0.00 0.00 0.00 89 1013.6
20260902075601 75 101 0.0 1.0 0.00 0.00 0.00 88 1013.3
20260902075058 76 112 0.0 2.0 0.00 0.00 0.00 88 1013.4
20260902074553 76 65 0.0 1.0 0.00 0.00 0.00 88 1013.3
20260902074048 76 87 0.0 2.0 0.00 0.00 0.00 88 1013.3
20260902073543 76 61 1.0 1.0 0.00 0.00 0.00 88 1013.5
20260902073040 76 45 0.0 1.0 0.00 0.00 0.00 88 1013.3
20260902072535 76 60 0.0 1.0 0.00 0.00 0.00 88 1013.5
20260902072032 76 75 0.0 1.0 0.00 0.00 0.00 88 1013.2
20260902071531 76 86 0.0 1.0 0.00 0.00 0.00 88 1013.2
20260902071028 76 89 0.0 2.0 0.00 0.00 0.00 87 1013.4
20260902070523 77 135 0.0 1.0 0.00 0.00 0.00 87 1013.4
20260902070018 77 130 0.0 2.0 0.00 0.00 0.00 87 1013.4